Elwood, MO

12:54 PM CDT on August 28, 2016 (GMT -0500)
Rosecrans Memorial

Weather History for KSTJ - October, 2011

Change the Weather History Date:

Saturday, October 29, 2011

  Actual Average Record
Temperature  
Mean Temperature 47 °F 50 °F  
Max Temperature 67 °F 62 °F 86 °F (1937)
Min Temperature 26 °F 38 °F 18 °F (1925)
Degree Days  
Heating Degree Days 18 15  
Month to date heating degree days 253 306  
Since 1 July heating degree days 306 386  
Cooling Degree Days 0 0  
Month to date cooling degree days 35 18  
Year to date cooling degree days 494 1217  
Moisture  
Dew Point 29 °F    
Average Humidity 61    
Maximum Humidity 100    
Minimum Humidity 22    
Precipitation  
Precipitation 0.00 in 0.08 in 2.73 in (1961)
Month to date precipitation 0.12 2.66  
Year to date precipitation 13.95 32.38  
Sea Level Pressure  
Sea Level Pressure 30.05 in    
Wind  
Wind Speed 8 mph (South)    
Max Wind Speed 21 mph    
Max Gust Speed 28 mph    
Visibility 10 miles    
Events      
T = Trace of Precipitation, MM = Missing Value Source: NWS Daily Summary

Daily Weather History Graph

Daily Weather History Graph

Search for Another Location

Airport or City:

Trip Planner

Search our weather history database for the weather conditions in past years. The results will help you decide how hot, cold, wet, or windy it might be!

Date:

Astronomy

Oct. 29, 2011 Rise Set
Actual Time 7:44 AM CDT 6:21 PM CDT
Civil Twilight 7:16 AM CDT 6:49 PM CDT
Nautical Twilight 6:45 AM CDT 7:20 PM CDT
Astronomical Twilight 6:13 AM CDT 7:52 PM CDT
Moon 11:07 AM CDT (10/29) 8:46 PM CDT (10/29)
Length of Visible Light 11h 32m
Length of Day
10h 36m
Waxing Crescent, 12% of the Moon is Illuminated
Oct 29
Waxing Crescent
Nov 2
First Quarter
Nov 10
Full
Nov 18
Last Quarter
Nov 25
New

Hourly Weather History & Observations

Time (CDT) Temp. Windchill Dew Point Humidity Pressure Visibility Wind Dir Wind Speed Gust Speed Precip Events Conditions
12:53 AM 34.0 °F 31.0 °F 28.9 °F 82% 30.18 in 10.0 mi South 3.5 mph - N/A   Clear
1:53 AM 35.1 °F 32.2 °F 30.9 °F 85% 30.19 in 10.0 mi SSE 3.5 mph - N/A   Clear
2:53 AM 33.1 °F - 28.9 °F 85% 30.17 in 10.0 mi Calm Calm - N/A   Clear
3:53 AM 30.9 °F - 27.0 °F 85% 30.17 in 10.0 mi Calm Calm - N/A   Clear
4:53 AM 33.8 °F 30.8 °F 28.4 °F 81% 30.15 in 10.0 mi SSE 3.5 mph - N/A   Clear
5:53 AM 28.4 °F - 24.8 °F 86% 30.15 in 10.0 mi Calm Calm - N/A   Clear
6:53 AM 30.0 °F 26.5 °F 27.0 °F 88% 30.17 in 10.0 mi SSE 3.5 mph - N/A   Clear
7:53 AM 27.0 °F - 26.1 °F 96% 30.17 in 10.0 mi Calm Calm - N/A   Clear
8:53 AM 35.1 °F - 32.0 °F 89% 30.17 in 10.0 mi Calm Calm - N/A   Clear
9:53 AM 44.1 °F - 30.0 °F 58% 30.15 in 10.0 mi Calm Calm - N/A   Clear
10:53 AM 53.1 °F - 30.0 °F 41% 30.12 in 10.0 mi South 9.2 mph - N/A   Clear
11:53 AM 57.9 °F - 28.9 °F 33% 30.09 in 10.0 mi South 15.0 mph - N/A   Clear
12:53 PM 61.0 °F - 28.9 °F 30% 30.05 in 10.0 mi SSW 11.5 mph 19.6 mph N/A   Clear
1:53 PM 64.9 °F - 28.9 °F 26% 30.01 in 10.0 mi SSW 10.4 mph - N/A   Clear
2:53 PM 66.0 °F - 27.0 °F 23% 29.98 in 10.0 mi SSW 10.4 mph - N/A   Clear
3:53 PM 66.0 °F - 28.0 °F 24% 29.95 in 10.0 mi SSW 12.7 mph - N/A   Clear
4:53 PM 66.9 °F - 28.9 °F 24% 29.92 in 10.0 mi South 9.2 mph - N/A   Clear
5:53 PM 64.4 °F - 28.4 °F 26% 29.91 in 10.0 mi South 11.5 mph - N/A   Clear
6:53 PM 60.8 °F - 30.2 °F 31% 29.91 in 10.0 mi South 10.4 mph - N/A   Clear
7:53 PM 60.1 °F - 30.0 °F 32% 29.92 in 10.0 mi South 12.7 mph - N/A   Clear
8:53 PM 60.1 °F - 28.9 °F 31% 29.93 in 10.0 mi South 13.8 mph - N/A   Clear
9:53 PM 60.1 °F - 28.0 °F 30% 29.93 in 10.0 mi South 13.8 mph - N/A   Clear
10:53 PM 57.9 °F - 28.9 °F 33% 29.91 in 10.0 mi South 16.1 mph - N/A   Clear
11:53 PM 57.0 °F - 28.9 °F 34% 29.91 in 10.0 mi South 15.0 mph - N/A   Mostly Cloudy